Simultaneous Nadir Overpasses (SNOs) Predictions

Prediction of SNOs between GOES-15 and NPP Satellite Orbit:

Table of predicted SNOs for the next 14.0 days since TLE Epoch: 2/1/2025
Index Date Time (GOES-15) GOES-15 Lat,Lon NPP Lat,Lon Distance(km) Time Diff (sec)
1 02/01/2025 09:34:32 -0.03, 61.78 -0.98, 57.50 487.90 80
2 02/02/2025 09:18:28 -0.03, 61.80 0.04, 62.03 27.01 80
3 02/04/2025 21:21:30 0.03, 61.73 0.15, 61.30 49.49 80
4 02/05/2025 21:00:06 0.03, 61.76 -0.88, 65.83 464.55 80
5 02/07/2025 09:22:01 -0.04, 61.91 -0.33, 60.54 155.79 80
6 02/08/2025 09:05:56 -0.04, 61.94 0.65, 65.08 358.31 80
7 02/09/2025 21:27:44 0.05, 61.86 0.50, 59.81 233.01 80
8 02/10/2025 21:06:19 0.04, 61.88 -0.48, 64.35 280.74 80
9 02/12/2025 09:28:14 -0.05, 62.04 -0.71, 59.06 340.22 80
10 02/13/2025 09:12:08 -0.05, 62.07 0.28, 63.60 173.90 80
11 02/14/2025 21:33:57 0.06, 61.98 0.86, 58.32 416.79 80
